www.pogodaiklimat.ru

Погода и климат >> Архив погоды >> Гренландия >> Ikermiuarsuk


ПОГОДА в Ikermiuarsuk

  • Прогноз погоды в Ikermiuarsuk
  • Монитор погоды в Ikermiuarsuk

АРХИВ ПОГОДЫ в Ikermiuarsuk

Время (UTC), дата Ветер
(напр.,м/с)
 
Видим.   Явления Облачность Т
(С)
Тd
(С)
f
(%)
Тe
(С)
Тes
(С)
Комфортность P
(гПа)
Po
(гПа)
Тmin
(С)
Tmax
(С)
R
(мм)
R24
(мм)
S
(см)
07 17.04 ЮЗ 4 н/о н/о -2.4 -5.0 82 -8 -8 998.4 993.5
08 17.04 З 2 н/о н/о -2.2 -8.1 64 -6 -6 998.0 993.1
09 17.04 З 2 н/о н/о -1.5 -7.8 62 -4 -4 998.1 993.2
10 17.04 ЮВ 2 н/о н/о -2.2 -6.7 71 -5 -5 998.0 993.1
11 17.04 З 2 н/о н/о -0.9 -5.8 69 -4 -4 997.6 992.7
12 17.04 н/о н/о -1.1 -3.9 81 997.7 992.8
13 17.04 ЮВ 3 н/о н/о -1.1 -4.3 79 -5 -5 997.7 992.8
14 17.04 З 1 н/о н/о +2.1 -4.0 64 +2 +2 997.7 992.8
15 17.04 ЮВ 2 н/о н/о -0.2 -3.1 81 -4 -4 997.7 992.8
16 17.04 Ю 1 н/о н/о +1.3 -3.8 69 -0 -0 997.8 992.9
17 17.04 ЮЗ 3 н/о н/о +0.5 -3.4 75 -4 -4 997.5 992.6
18 17.04 З 2 н/о н/о +0.8 -3.9 71 -2 -2 997.5 992.6
19 17.04 СВ 2 н/о н/о +0.5 -2.9 78 -3 -3 997.9 993.0
20 17.04 С 2 н/о н/о 0.0 -2.4 84 -3 -3 997.9 993.0
21 17.04 С 5 н/о н/о -0.5 -2.7 85 -7 -7 998.5 993.6
22 17.04 С 6 н/о н/о -0.6 -3.0 84 -7 -7 999.0 994.1
23 17.04 С 5 н/о н/о -0.1 -4.9 70 -6 -6 999.3 994.4
00 18.04 С 6 н/о н/о +0.4 -5.4 65 -6 -6 999.3 994.4
01 18.04 С 6 н/о н/о -0.1 -5.3 68 -6 -6 998.9 994.0
02 18.04 С 6 н/о н/о -0.9 -3.6 82 -8 -8 998.3 993.4
03 18.04 н/о н/о -0.3 -3.5 79 998.1 993.2
04 18.04 С 8 н/о н/о -1.6 -2.0 97 -10 -10 997.9 993.0
05 18.04 С 9 н/о н/о -0.9 -1.4 96 -9 -9 997.3 992.4
06 18.04 С 10 н/о н/о -0.6 -1.3 95 -9 -9 996.7 991.8
07 18.04 С 10 н/о н/о -0.8 -1.2 97 -10 -10 996.3 991.4
08 18.04 С 9 н/о н/о -0.7 -1.1 97 -9 -9 996.2 991.3
09 18.04 С 9 н/о н/о -0.9 -1.3 97 -9 -9 995.7 990.8
10 18.04 С 8 н/о н/о -0.9 -1.4 96 -9 -9 995.0 990.1
11 18.04 С 9 н/о н/о +0.4 -1.0 90 -8 -8 994.5 989.6
12 18.04 С 11 н/о н/о +0.6 -0.7 91 -8 -8 993.8 988.9
13 18.04 С 10 н/о н/о +0.6 -0.5 92 -7 -7 993.5 988.6
14 18.04 С 10 н/о н/о +0.7 -0.5 92 -7 -7 992.9 988.0
15 18.04 С 10 н/о н/о +1.2 -0.6 88 -7 -7 992.1 987.2
16 18.04 С 9 н/о н/о +1.0 -0.2 92 -7 -7 991.5 986.6
17 18.04 С 10 н/о н/о +0.7 0.0 95 -7 -7 991.0 986.1
18 18.04 С 10 н/о н/о +1.3 0.0 91 -7 -7 990.7 985.8
19 18.04 С 10 н/о н/о +1.3 -0.2 90 -7 -7 990.3 985.4
20 18.04 С 9 н/о н/о +1.6 -0.2 88 -6 -6 990.3 985.4
21 18.04 С 9 н/о н/о +1.8 -0.1 87 -5 -5 990.3 985.4
22 18.04 С 10 н/о н/о +2.4 -0.4 82 -5 -5 990.0 985.1
23 18.04 С 10 н/о н/о +2.7 -0.4 80 -5 -5 990.2 985.3
00 19.04 С 10 н/о н/о +3.2 -0.6 76 -4 -4 989.9 985.0
01 19.04 С 9 н/о н/о +2.9 -0.6 78 -4 -4 989.7 984.8
02 19.04 С 8 н/о н/о +1.9 -0.4 85 -5 -5 989.5 984.6
03 19.04 С 8 н/о н/о +0.2 -0.2 97 -7 -7 989.5 984.6
04 19.04 С 5 н/о н/о 0.0 -0.1 99 -6 -6 989.4 984.5
05 19.04 С 12 н/о н/о +0.1 +0.1 100 -9 -9 989.5 984.6
06 19.04 С 10 н/о н/о +0.2 +0.1 99 -8 -8 989.9 985.0
07 19.04 0 н/о н/о +0.1 0.0 99 990.8 985.9
08 19.04 С 9 н/о н/о +0.2 +0.1 99 -8 -8 991.4 986.5
09 19.04 С 7 н/о н/о 0.0 0.0 100 -7 -7 992.1 987.2
10 19.04 С 6 н/о н/о 0.0 -0.1 99 -7 -7 992.5 987.6
11 19.04 С 7 н/о н/о +0.2 -0.1 98 -7 -7 992.9 988.0
12 19.04 С 7 н/о н/о +0.4 0.0 97 -7 -7 993.3 988.4
13 19.04 С 6 н/о н/о +0.6 0.0 96 -6 -6 993.7 988.8
14 19.04 С 6 н/о н/о +0.9 0.0 94 -5 -5 993.9 989.0
15 19.04 н/о н/о +1.4 +0.2 92 994.0 989.1
16 19.04 С 3 н/о н/о +3.1 +0.6 84 -1 -1 994.2 989.3
17 19.04 З 1 н/о н/о +4.9 +1.2 77 +5 +5 994.6 989.7
18 19.04 ЮЗ 3 н/о н/о +2.1 0.0 86 -2 -2 994.9 990.0
19 19.04 Ю 4 н/о н/о +0.9 -0.3 92 -4 -4 995.2 990.3
20 19.04 Ю 4 н/о н/о +0.8 -0.4 92 -5 -5 995.2 990.3
21 19.04 Ю 4 н/о н/о +0.5 -0.5 93 -5 -5 995.3 990.4
22 19.04 ЮЗ 4 н/о н/о +1.1 -0.5 89 -4 -4 995.5 990.6
23 19.04 Ю 3 н/о н/о +1.6 -0.3 87 -2 -2 995.7 990.8
00 20.04 Ю 2 н/о н/о +0.7 -0.9 89 -3 -3 995.8 990.9
01 20.04 Ю 4 н/о н/о -0.6 -1.9 91 -6 -6 995.7 990.8
02 20.04 ЮЗ 2 н/о н/о +1.9 -1.5 78 -1 -1 995.3 990.4
03 20.04 Ю 2 н/о н/о +1.6 -2.9 72 -2 -2 995.1 990.2
04 20.04 З 3 н/о н/о +2.0 -7.1 51 -2 -2 995.2 990.3
05 20.04 З 2 н/о н/о +2.8 -8.8 42 +1 +1 995.3 990.4
06 20.04 З 3 н/о н/о +2.8 -11.9 33 -0 -0 995.3 990.4
07 20.04 СВ 3 н/о н/о +1.7 -9.5 43 -1 -1 995.5 990.6
08 20.04 СЗ 2 н/о н/о +2.2 -11.7 35 -0 -0 996.4 991.5
09 20.04 ЮЗ 3 н/о н/о +3.8 -11.8 31 +1 +1 996.8 991.9
10 20.04 СЗ 3 н/о н/о +4.5 -10.0 34 +2 +2 996.6 991.7
11 20.04 С 2 н/о н/о +5.9 -10.8 29 +5 +5 996.7 991.8
12 20.04 ЮВ 2 н/о н/о +3.6 -6.4 48 +1 +1 996.9 992.0
13 20.04 ЮВ 2 н/о н/о +2.5 -4.3 61 0 0 997.0 992.1
15 20.04 С 1 н/о н/о +3.0 -1.9 70 +2 +2 996.6 991.7
16 20.04 СВ 1 н/о н/о +1.8 -1.8 77 0 0 996.6 991.7
17 20.04 ЮВ 2 н/о н/о +1.9 -2.4 73 -1 -1 996.5 991.6
18 20.04 Ю 3 н/о н/о +0.6 -1.6 85 -4 -4 996.3 991.4
19 20.04 З 1 н/о н/о +1.6 -1.6 79 -0 -0 996.5 991.6
20 20.04 Ю 2 н/о н/о 0.0 -1.6 89 -4 -4 996.5 991.6
21 20.04 Ю 4 н/о н/о -0.4 -1.7 91 -6 -6 996.8 991.9
22 20.04 ЮВ 1 н/о н/о -0.9 -2.0 92 -3 -3 997.0 992.1
23 20.04 ЮВ 3 н/о н/о -2.1 -2.8 95 -7 -7 997.3 992.4
00 21.04 Ю 1 н/о н/о -1.9 -2.7 94 -4 -4 997.7 992.8
01 21.04 СВ 4 н/о н/о -2.0 -2.7 95 -8 -8 997.8 992.9
02 21.04 С 8 н/о н/о -1.5 -1.9 97 -10 -10 997.9 993.0
03 21.04 С 7 н/о н/о -1.5 -1.9 97 -9 -9 998.4 993.5
04 21.04 С 7 н/о н/о -1.0 -1.8 94 -9 -9 998.7 993.8
05 21.04 С 8 н/о н/о -0.7 -1.7 93 -9 -9 999.5 994.6
06 21.04 С 7 н/о н/о -0.6 -1.7 92 -8 -8 1000.5 995.6
07 21.04 С 6 н/о н/о -0.8 -2.1 91 -8 -8 1001.5 996.6
08 21.04 С 6 н/о н/о -0.4 -2.3 87 -7 -7 1002.5 997.6
09 21.04 С 9 н/о н/о +0.4 -2.6 80 -7 -7 1003.2 998.3
10 21.04 С 8 н/о н/о +1.1 -2.7 76 -6 -6 1004.3 999.4
11 21.04 С 7 н/о н/о +1.2 -3.1 73 -5 -5 1005.3 1000.4
12 21.04 С 4 н/о н/о +1.5 -3.0 72 -3 -3 1006.5 1001.6
13 21.04 С 3 н/о н/о +1.6 -2.9 72 -3 -3 1007.3 1002.4
14 21.04 СВ 4 н/о н/о +1.3 -2.5 76 -4 -4 1008.1 1003.2
15 21.04 С 3 н/о н/о +1.6 -2.4 75 -2 -2 1008.7 1003.8
16 21.04 ЮЗ 1 н/о н/о +2.1 -2.8 70 +2 +2 1009.2 1004.3
17 21.04 Ю 2 н/о н/о +1.7 -2.1 76 -1 -1 1009.7 1004.8
18 21.04 Ю 3 н/о н/о +1.3 -2.5 76 -3 -3 1010.2 1005.3
19 21.04 ЮЗ 3 н/о н/о +1.0 -2.4 78 -3 -3 1010.8 1005.9
20 21.04 ЮВ 3 н/о н/о +0.6 -2.6 79 -3 -3 1011.0 1006.1
21 21.04 Ю 3 н/о н/о -0.6 -2.3 88 -5 -5 1011.0 1006.1
22 21.04 Ю 4 н/о н/о -1.4 -2.7 91 -7 -7 1010.9 1006.0
23 21.04 Ю 3 н/о н/о -1.3 -3.2 87 -6 -6 1010.7 1005.8
00 22.04 ЮВ 2 н/о н/о -2.6 -3.4 94 -6 -6 1010.7 1005.8
01 22.04 З 1 н/о н/о -2.4 -3.6 91 -3 -3 1010.6 1005.7
02 22.04 ЮВ 2 н/о н/о -3.3 -3.7 97 -8 -8 1010.0 1005.1
03 22.04 В 1 н/о н/о -3.3 -4.1 94 -6 -6 1009.5 1004.6
04 22.04 СВ 2 н/о н/о -2.8 -3.6 94 -6 -6 1009.1 1004.2
05 22.04 СВ 2 н/о н/о -3.2 -3.6 97 -8 -8 1008.7 1003.8
06 22.04 СЗ 1 н/о н/о -2.8 -4.0 91 -5 -5 1008.5 1003.6
07 22.04 С 3 н/о н/о -3.0 -3.9 93 -8 -8 1008.1 1003.2
08 22.04 СВ 3 н/о н/о -3.2 -4.0 94 -9 -9 1007.9 1003.0
09 22.04 С 2 н/о н/о -3.3 -4.7 90 -8 -8 1007.7 1002.8
10 22.04 С 4 н/о н/о -3.1 -4.8 88 -9 -9 1007.1 1002.2
11 22.04 С 7 н/о н/о -2.2 -3.7 89 -10 -10 1006.4 1001.5
12 22.04 С 9 н/о н/о -2.2 -4.2 86 -11 -11 1005.8 1000.9
13 22.04 С 9 н/о н/о -1.9 -3.5 89 -10 -10 1005.3 1000.4
14 22.04 С 11 н/о н/о -1.9 -2.7 94 -11 -11 1004.4 999.5
15 22.04 С 14 н/о н/о -2.1 -2.8 95 -12 -12 1003.3 998.4
16 22.04 С 13 н/о н/о -2.5 -3.2 95 -13 -13 1002.9 998.0
17 22.04 С 14 н/о н/о -2.5 -3.2 95 -13 -13 1002.3 997.4
18 22.04 С 13 н/о н/о -2.5 -3.0 96 -13 -13 1002.4 997.5
19 22.04 С 9 н/о н/о -2.3 -2.8 96 -11 -11 1002.6 997.7
20 22.04 С 10 н/о н/о -2.0 -2.4 97 -11 -11 1002.4 997.5
21 22.04 С 9 н/о н/о -1.9 -2.3 97 -11 -11 1002.3 997.4
22 22.04 С 10 н/о н/о -1.7 -2.2 96 -11 -11 1002.4 997.5
23 22.04 н/о н/о -1.6 -2.3 95 1003.0 998.1
00 23.04 н/о н/о -1.6 -2.1 96 1002.9 998.0
01 23.04 н/о н/о -1.6 -2.6 93 1003.4 998.5
03 23.04 С 10 н/о н/о -1.8 -2.3 96 -11 -11 1003.1 998.2
04 23.04 С 11 н/о н/о -1.7 -2.4 95 -11 -11 1002.8 997.9
05 23.04 С 8 н/о н/о -1.6 -1.9 98 -10 -10 1002.3 997.4
06 23.04 С 11 н/о н/о -1.0 -2.0 93 -10 -10 1002.3 997.4
07 23.04 С 8 н/о н/о -1.1 -1.5 97 -9 -9 1002.4 997.5
08 23.04 С 8 н/о н/о -1.0 -1.5 96 -9 -9 1002.5 997.6
09 23.04 н/о н/о -0.7 -1.3 96 1002.8 997.9
10 23.04 н/о н/о -0.5 -1.2 95 1002.8 997.9
11 23.04 С 8 н/о н/о -0.4 -1.1 95 -8 -8 1002.9 998.0
12 23.04 С 7 н/о н/о -0.4 -1.1 95 -8 -8 1002.8 997.9
13 23.04 н/о н/о +0.2 -0.8 93 1003.0 998.1
14 23.04 С 9 н/о н/о +0.6 -1.2 88 -7 -7 1002.7 997.8
15 23.04 С 9 н/о н/о +0.4 -0.9 91 -8 -8 1002.3 997.4
16 23.04 С 8 н/о н/о 0.0 -0.6 96 -8 -8 1002.0 997.1
17 23.04 0 н/о н/о -0.3 -1.1 94 1001.9 997.0
18 23.04 С 9 н/о н/о -0.5 -1.8 91 -9 -9 1001.7 996.8
19 23.04 С 9 н/о н/о -0.6 -1.9 91 -9 -9 1002.0 997.1
20 23.04 С 9 н/о н/о -0.9 -2.5 89 -9 -9 1001.8 996.9
21 23.04 С 9 н/о н/о -0.8 -3.8 80 -9 -9 1001.6 996.7
22 23.04 С 11 н/о н/о -1.3 -5.0 76 -10 -10 1001.2 996.3
23 23.04 С 7 н/о н/о -1.9 -4.9 80 -9 -9 1000.9 996.0
00 24.04 СЗ 7 н/о н/о -2.0 -4.5 83 -10 -10 1000.0 995.1
01 24.04 С 5 н/о н/о -1.8 -4.8 80 -8 -8 998.9 994.0
02 24.04 СЗ 5 н/о н/о -2.0 -5.3 78 -8 -8 997.4 992.5
03 24.04 С 4 н/о н/о -1.9 -5.2 78 -7 -7 995.9 991.0
04 24.04 СЗ 3 н/о н/о -3.4 -5.7 84 -8 -8 994.5 989.6
05 24.04 ЮЗ 3 н/о н/о -3.6 -6.0 83 -9 -9 993.2 988.3
06 24.04 ЮЗ 2 н/о н/о -3.5 -6.3 81 -8 -8 992.4 987.5
07 24.04 З 1 н/о н/о -1.9 -6.4 71 -2 -2 991.4 986.5

 

Местоположение метеостанции Ikermiuarsuk (Гренландия): широта 61.93 долгота -42.06 высота над уровнем моря 39 м.

В архиве по умолчанию представлена погода в Ikermiuarsuk за последнюю неделю. Архивные данные за месяц целиком и за предыдущие месяцы, начиная с января 2011 года, Вы можете получить, выбрав интересующий диапазон дат из раскрывающегося списка и нажав кнопку "Ввод!".


*Определитесь, кто Вы:
робот инопланетянин человек

Внимание! Время в таблицах - всемирное. Для получения местного времени необходимо прибавить поправку, которая равна -3 ч.

Смотрите также архив погоды в соседних городах и на ближайших метеорологических станциях:

Погода в Narsarsuaq (Гренландия) (200 км)
Погода в Prins Christian Sun (Гренландия) (217 км)
Погода в Qaqortoq (Гренландия) (252 км)
Погода в Angisoq (Гренландия) (275 км)
Погода в Ikermiit (Гренландия) (329 км)
Погода в Nunarsuit (Гренландия) (362 км)
Погода в Paamiut (Гренландия) (397 км)
Погода в Ukiivik (Гренландия) (438 км)
Погода в Tasiilaq (Гренландия) (462 км)
Погода в Kulusuk (Гренландия) (472 км)

Пояснения к столбцам:

Ветер - указаны скорость ветра в м/с - средняя за 10 мин, порывы в срок и между сроками (в фигурных скобках) и направление, откуда дует ветер: С - северный, СВ - северо-восточный, В - восточный, ЮВ - юго-восточный, Ю - южный, ЮЗ - юго-западный, З - западный, СЗ - северо-западный.
Видимость - горизонтальная дальность видимости в метрах или километрах. При видимости от 1 до 10 км при отсутствии осадков обычно наблюдается дымка, при ухудшении видимости до 1 км и менее - туман. В сухую погоду видимость может ухудшаться дымом, пылью или мглою.
Явления - указаны атмосферные явления, наблюдавшиеся в срок или в последний час перед сроком; фигурными скобками обозначены явления, наблюдавшиеся между сроками (за 1-3 часа до срока); квадратными скобками обозначены град или гололедные отложения с указанием их диаметра в мм.
Облачность - указаны через наклонную черту общая и нижняя облачность в баллах и высота нижней границы облаков в метрах; квадратными скобками обозначены формы облаков: Ci - перистые, Cs - перисто-слоистые, Cc - перисто-кучевые, Ac - высококучевые, As - высокослоистые, Sc - слоисто-кучевые, Ns - слоисто-дождевые, Cu - кучевые, Cb - кучево-дождевые. Подробнее классификацию облаков см. в Атласе облаков (PDF).
T - Температура воздуха - температура, измеренная на высоте 2 м над землей.
Td - Температура точки росы - температура, при понижении до которой содержащийся в воздухе водяной пар достигнет насыщения.
f - Относительная влажность воздуха - влажноcть воздуха, измеренная на высоте 2 м над землей.
Te - Эффективная температура - температура, которую ощущает одетый по сезону человек в тени. Характеристика душности погоды. При расчете учитывается влияние влажности воздуха и скорости ветра на теплоощущения человека.
Tes - Эффективная температура на солнце - температура, которую ощущает человек, с поправкой на солнечный нагрев. Характеристика знойности погоды. Зависит от высоты солнца над горизонтом, облачности и скорости ветра. Ночью, в пасмурную погоду, а также при ветре 12 м/с и более поправка равна нулю.
P - Атмосферное давление - приведенное к уровню моря атмосферное давление.
Po - Атмосферное давление - измеренное на уровне метеостанции атмосферное давление.
Tmin - Минимальная температура - минимум температуры воздуха на высоте 2 м над землей.
Tmax - Максимальная температура - максимум температуры воздуха на высоте 2 м над землей.
R - Количество осадков - Количество выпавших осадков за период времени, мм. При наведении курсора мыши на число - период времени, за который выпало указанное количество осадков.
R24 - Количество осадков - Количество выпавших осадков за 24 часа, мм.
S - Снежный покров - Высота снежного покрова, см. При наведении курсора мыши на число - состояние снежного покрова и степень покрытия местности в баллах.